Weather History for KBBB - May, 2013

Change the Weather History Date:

Tuesday, May 28, 2013

  Actual Average Record
Temperature  
Mean Temperature 60 °F -  
Max Temperature 64 °F 76 °F 98 °F (2006)
Min Temperature 55 °F 53 °F 33 °F (1965)
Degree Days  
Heating Degree Days 6    
Growing Degree Days 10 (Base 50)    
Moisture  
Dew Point 55 °F    
Average Humidity 88    
Maximum Humidity 94    
Minimum Humidity 73    
Precipitation  
Precipitation 0.00 in - - ()
Sea Level Pressure  
Sea Level Pressure 29.74 in    
Wind  
Wind Speed 6 mph (SSE)    
Max Wind Speed 12 mph    
Max Gust Speed 17 mph    
Visibility 8 miles    
Events      
Averages and records for this station are not official NWS values.
T = Trace of Precipitation, MM = Missing Value Source: NWS Daily Summary

Daily Weather History Graph

Daily Weather History Graph

Search for Another Location

Airport or City:

Trip Planner

Search our weather history database for the weather conditions in past years. The results will help you decide how hot, cold, wet, or windy it might be!

Date:

Astronomy

May. 28, 2013 Rise Set
Actual Time 5:40 AM CDT 9:00 PM CDT
Civil Twilight 5:04 AM CDT 9:36 PM CDT
Nautical Twilight 4:16 AM CDT 10:23 PM CDT
Astronomical Twilight 3:17 AM CDT 11:23 PM CDT
Moon No Moon Rise 9:34 AM CDT (5/28)
Length of Visible Light 16h 32m
Length of Day
15h 19m
Waning Gibbous, 82% of the Moon is Illuminated
May 28
Waning Gibbous
May 31
Last Quarter
Jun 8
New
Jun 16
First Quarter
Jun 23
Full

Hourly Weather History & Observations

Time (CDT) Temp. Dew Point Humidity Pressure Visibility Wind Dir Wind Speed Gust Speed Precip Events Conditions
12:12 AM 57.2 °F 53.6 °F 88% 29.81 in 7.0 mi SSE 6.9 mph - N/A   Overcast
12:33 AM 57.2 °F 53.6 °F 88% 29.79 in 7.0 mi SE 8.1 mph - N/A   Overcast
12:53 AM 57.2 °F 53.6 °F 88% 29.78 in 10.0 mi SE 5.8 mph - N/A   Overcast
1:12 AM 57.2 °F 53.6 °F 88% 29.78 in 10.0 mi SSE 10.4 mph - N/A   Overcast
1:33 AM 57.2 °F 53.6 °F 88% 29.78 in 10.0 mi SE 9.2 mph - N/A   Overcast
1:53 AM 57.2 °F 53.6 °F 88% 29.79 in 7.0 mi SSE 6.9 mph 16.1 mph N/A   Overcast
2:12 AM 57.2 °F 53.6 °F 88% 29.80 in 7.0 mi South 5.8 mph - N/A   Overcast
2:33 AM 55.4 °F 53.6 °F 94% 29.80 in 7.0 mi Calm Calm - N/A   Overcast
2:53 AM 55.4 °F 53.6 °F 94% 29.77 in 7.0 mi ESE 5.8 mph - N/A   Overcast
3:12 AM 55.4 °F 53.6 °F 94% 29.76 in 7.0 mi ESE 3.5 mph - N/A   Overcast
3:33 AM 55.4 °F 53.6 °F 94% 29.77 in 7.0 mi Calm Calm - N/A   Overcast
3:52 AM 55.4 °F 53.6 °F 94% 29.76 in 5.0 mi SE 5.8 mph - N/A   Overcast
4:13 AM 55.4 °F 53.6 °F 94% 29.75 in 5.0 mi SE 5.8 mph - N/A   Overcast
4:33 AM 55.4 °F 53.6 °F 94% 29.76 in 7.0 mi SE 5.8 mph - N/A   Overcast
4:52 AM 55.4 °F 53.6 °F 94% 29.75 in 7.0 mi SE 3.5 mph - N/A   Overcast
5:13 AM 55.4 °F 53.6 °F 94% 29.74 in 7.0 mi ESE 4.6 mph - N/A   Overcast
5:32 AM 55.4 °F 53.6 °F 94% 29.74 in 7.0 mi SE 5.8 mph - N/A   Overcast
5:53 AM 55.4 °F 53.6 °F 94% 29.74 in 7.0 mi SE 4.6 mph - N/A   Overcast
6:12 AM 55.4 °F 53.6 °F 94% 29.73 in 7.0 mi SE 6.9 mph - N/A   Overcast
6:32 AM 55.4 °F 53.6 °F 94% 29.73 in 3.0 mi SE 9.2 mph - N/A   Overcast
6:53 AM 55.4 °F 53.6 °F 94% 29.73 in 1.2 mi SE 3.5 mph - N/A   Overcast
7:12 AM 55.4 °F 53.6 °F 94% 29.71 in 1.0 mi SE 9.2 mph - N/A   Overcast
7:32 AM 55.4 °F 53.6 °F 94% 29.71 in 1.5 mi SE 8.1 mph - N/A   Overcast
7:53 AM 55.4 °F 53.6 °F 94% 29.71 in 1.5 mi SE 5.8 mph - N/A   Overcast
8:12 AM 55.4 °F 53.6 °F 94% 29.71 in 1.2 mi SSE 4.6 mph - N/A   Overcast
8:33 AM 55.4 °F 53.6 °F 94% 29.71 in 4.0 mi SE 5.8 mph - N/A   Overcast
8:53 AM 55.4 °F 53.6 °F 94% 29.70 in 7.0 mi SE 11.5 mph 17.3 mph N/A   Overcast
9:12 AM 55.4 °F 53.6 °F 94% 29.70 in 7.0 mi SSE 6.9 mph - N/A   Overcast
9:33 AM 55.4 °F 53.6 °F 94% 29.70 in 7.0 mi SE 9.2 mph - N/A   Overcast
9:53 AM 55.4 °F 53.6 °F 94% 29.71 in 7.0 mi SE 9.2 mph - N/A   Overcast
10:12 AM 57.2 °F 53.6 °F 88% 29.74 in 10.0 mi Calm Calm - N/A   Overcast
10:33 AM 57.2 °F 53.6 °F 88% 29.75 in 10.0 mi SSW 3.5 mph - N/A   Overcast
10:53 AM 57.2 °F 53.6 °F 88% 29.75 in 10.0 mi SSW 3.5 mph - N/A   Overcast
11:12 AM 57.2 °F 53.6 °F 88% 29.75 in 7.0 mi South 3.5 mph - N/A   Overcast
11:33 AM 57.2 °F 53.6 °F 88% 29.75 in 10.0 mi South 3.5 mph - N/A   Overcast
11:52 AM 57.2 °F 53.6 °F 88% 29.75 in 10.0 mi Calm Calm - N/A   Overcast
12:13 PM 57.2 °F 53.6 °F 88% 29.74 in 10.0 mi Calm Calm - N/A   Overcast
12:33 PM 57.2 °F 55.4 °F 94% 29.74 in 10.0 mi Calm Calm - N/A   Overcast
12:52 PM 57.2 °F 55.4 °F 94% 29.75 in 10.0 mi SW 3.5 mph - N/A   Overcast
1:13 PM 57.2 °F 55.4 °F 94% 29.74 in 10.0 mi South 3.5 mph - N/A   Overcast
1:33 PM 57.2 °F 55.4 °F 94% 29.75 in 10.0 mi Calm Calm - N/A   Overcast
1:52 PM 59.0 °F 55.4 °F 88% 29.74 in 10.0 mi West 4.6 mph - N/A   Overcast
2:13 PM 59.0 °F 55.4 °F 88% 29.75 in 7.0 mi Calm Calm - N/A   Overcast
2:33 PM 60.8 °F 55.4 °F 82% 29.74 in 7.0 mi Calm Calm - N/A   Overcast
2:52 PM 60.8 °F 55.4 °F 82% 29.74 in 10.0 mi Calm Calm - N/A   Overcast
3:12 PM 60.8 °F 55.4 °F 82% 29.74 in 10.0 mi Calm Calm - N/A   Overcast
3:33 PM 62.6 °F 55.4 °F 77% 29.73 in 10.0 mi Calm Calm - N/A   Overcast
3:52 PM 62.6 °F 55.4 °F 77% 29.73 in 10.0 mi ESE 3.5 mph - N/A   Overcast
4:13 PM 64.4 °F 55.4 °F 73% 29.73 in 10.0 mi South 3.5 mph - N/A   Overcast
4:33 PM 62.6 °F 57.2 °F 82% 29.73 in 10.0 mi SSW 4.6 mph - N/A   Overcast
4:52 PM 64.4 °F 55.4 °F 73% 29.73 in 10.0 mi SSW 3.5 mph - N/A   Overcast
5:13 PM 64.4 °F 55.4 °F 73% 29.73 in 10.0 mi Calm Calm - N/A   Overcast
5:33 PM 62.6 °F 57.2 °F 82% 29.73 in 10.0 mi SSW 4.6 mph - N/A   Overcast
5:52 PM 64.4 °F 57.2 °F 77% 29.73 in 10.0 mi South 6.9 mph - N/A   Overcast
6:13 PM 64.4 °F 57.2 °F 77% 29.72 in 10.0 mi SSE 6.9 mph - N/A   Overcast
6:32 PM 64.4 °F 57.2 °F 77% 29.72 in 10.0 mi South 8.1 mph - N/A   Scattered Clouds
6:53 PM 64.4 °F 57.2 °F 77% 29.72 in 10.0 mi South 5.8 mph - N/A   Clear
7:13 PM 64.4 °F 57.2 °F 77% 29.72 in 10.0 mi SSW 6.9 mph - N/A   Clear
7:32 PM 64.4 °F 57.2 °F 77% 29.71 in 10.0 mi South 6.9 mph - N/A   Clear
7:53 PM 62.6 °F 57.2 °F 82% 29.71 in 10.0 mi South 8.1 mph - N/A   Clear
8:12 PM 62.6 °F 57.2 °F 82% 29.71 in 10.0 mi South 6.9 mph - N/A   Clear
8:32 PM 62.6 °F 55.4 °F 77% 29.70 in 10.0 mi South 8.1 mph - N/A   Clear
8:53 PM 60.8 °F 55.4 °F 82% 29.71 in 10.0 mi South 9.2 mph - N/A   Clear
9:12 PM 60.8 °F 55.4 °F 82% 29.71 in 10.0 mi South 6.9 mph - N/A   Clear
9:32 PM 59.0 °F 55.4 °F 88% 29.72 in 10.0 mi South 8.1 mph - N/A   Clear
9:53 PM 59.0 °F 55.4 °F 88% 29.73 in 10.0 mi South 6.9 mph - N/A   Clear
10:12 PM 57.2 °F 55.4 °F 94% 29.73 in 10.0 mi South 8.1 mph - N/A   Clear
10:33 PM 59.0 °F 55.4 °F 88% 29.72 in 10.0 mi SSE 4.6 mph - N/A   Clear
10:53 PM 57.2 °F 55.4 °F 94% 29.73 in 10.0 mi South 6.9 mph - N/A   Clear
11:12 PM 57.2 °F 55.4 °F 94% 29.73 in 10.0 mi South 5.8 mph - N/A   Clear
11:33 PM 55.4 °F 53.6 °F 94% 29.75 in 7.0 mi South 6.9 mph - N/A   Clear
11:53 PM 55.4 °F 53.6 °F 94% 29.76 in 7.0 mi South 5.8 mph - N/A   Clear